Location: Newark
(40.3500°N, 15.2333°E)
Time: 07:23:11
(UTC+00:00)

Altair - Pass Details

Date: 21 January 2020
Orbit: 1502 x 1682 km, 47.2° (Epoch: 17 February)

Event Time Altitude Azimuth Distance (km) Brightness Sun altitude
Rises 11:33:17 0° 278° (W) 4,931 10.1 29.5°
Reaches altitude 10° 11:36:34 10° 282° (WNW) 3,946 9.7 29.4°
Maximum altitude 11:46:35 59° 1° (N) 1,891 8.1 29.1°
Drops below altitude 10° 11:56:26 10° 80° (E) 3,880 9.5 28.7°
Sets 11:59:38 0° 84° (E) 4,845 9.9 28.6°
